FW2111 Weather Reports


Display with metric or nautical units.
time (UTC)temp
F
wind
direction
speed
MPH
gust
MPH
rain 1hr
in
rain 24hr
in
rain mn
in
humidity
%
barometer
mb
20260904005138 66 61 7.0 17.0 0.00 0.00 0.00 62 1014.2
20260904004611 66 78 7.0 17.0 0.00 0.00 0.00 62 1014.1
20260904004049 66 69 9.0 20.0 0.00 0.00 0.00 62 1013.9
20260904003544 66 42 9.0 20.0 0.00 0.00 0.00 62 1013.7
20260904003312 66 33 9.0 20.0 0.00 0.00 0.00 62 1013.9
20260904002539 66 62 9.0 22.0 0.00 0.00 0.00 63 1013.9
20260904002036 66 71 7.0 22.0 0.00 0.00 0.00 63 1013.8
20260904001741 66 22 8.0 27.0 0.00 0.00 0.00 63 1013.6
20260904001237 66 26 10.0 27.0 0.00 0.00 0.00 62 1013.5
20260904000503 66 82 11.0 22.0 0.00 0.00 0.00 62 1013.4
20260904000211 66 5 11.0 23.0 0.00 0.00 0.00 61 1013.5
20260903235435 67 78 11.0 23.0 0.00 0.00 0.00 61 1013.8
20260903234908 67 46 11.0 22.0 0.00 0.00 0.00 60 1013.6
20260903234400 67 60 10.0 25.0 0.00 0.00 0.00 59 1013.5
20260903233847 67 78 10.0 25.0 0.00 0.00 0.00 58 1013.5
20260903233344 68 61 11.0 21.0 0.00 0.00 0.00 56 1013.5
20260903232829 68 98 10.0 20.0 0.00 0.00 0.00 55 1013.5
20260903232600 69 35 12.0 26.0 0.00 0.00 0.00 54 1013.4
20260903231830 69 78 13.0 26.0 0.00 0.00 0.00 53 1013.2
20260903231304 69 129 13.0 24.0 0.00 0.00 0.00 53 1013.4
20260903230756 69 44 11.0 25.0 0.00 0.00 0.00 53 1013.4
20260903230254 69 64 10.0 25.0 0.00 0.00 0.00 53 1013.3
20260903225746 69 129 13.0 35.0 0.00 0.00 0.00 53 1013.2
20260903225244 69 50 13.0 35.0 0.00 0.00 0.00 52 1012.9
20260903224948 70 77 10.0 20.0 0.00 0.00 0.00 51 1012.7
20260903224214 70 36 11.0 23.0 0.00 0.00 0.00 52 1012.9
20260903223646 70 30 12.0 24.0 0.00 0.00 0.00 51 1012.6
20260903223143 70 93 11.0 24.0 0.00 0.00 0.00 50 1012.6
20260903222618 71 97 11.0 23.0 0.00 0.00 0.00 50 1012.5
20260903222052 71 48 11.0 30.0 0.00 0.00 0.00 51 1012.6
20260903221525 71 96 12.0 30.0 0.00 0.00 0.00 52 1012.3
20260903221022 71 65 13.0 28.0 0.00 0.00 0.00 51 1012.7
20260903220506 71 80 11.0 28.0 0.00 0.00 0.00 51 1012.8
20260903220006 72 63 12.0 26.0 0.00 0.00 0.00 50 1012.7
20260903215503 72 100 12.0 26.0 0.00 0.00 0.00 50 1012.7
20260903215006 72 71 12.0 20.0 0.00 0.00 0.00 49 1012.8
20260903214438 72 100 11.0 26.0 0.00 0.00 0.00 49 1012.8
20260903213937 72 55 11.0 23.0 0.00 0.00 0.00 48 1012.9
20260903213408 72 46 12.0 26.0 0.00 0.00 0.00 48 1012.8
20260903212906 72 72 11.0 26.0 0.00 0.00 0.00 47 1012.8
20260903212338 72 59 12.0 28.0 0.00 0.00 0.00 48 1013.1
20260903211842 73 55 10.0 20.0 0.00 0.00 0.00 47 1012.7
20260903211837 72 63 13.0 28.0 0.00 0.00 0.00 48 1012.9
20260903210830 73 60 8.0 21.0 0.00 0.00 0.00 46 1012.8
20260903210302 73 92 7.0 21.0 0.00 0.00 0.00 48 1012.7
20260903205800 73 65 8.0 14.0 0.00 0.00 0.00 48 1012.7
20260903205233 73 89 10.0 25.0 0.00 0.00 0.00 47 1012.9
20260903204729 73 86 10.0 25.0 0.00 0.00 0.00 46 1012.8
20260903204204 73 75 9.0 18.0 0.00 0.00 0.00 46 1012.8
20260903203701 73 79 9.0 22.0 0.00 0.00 0.00 47 1012.9
20260903203157 73 86 9.0 22.0 0.00 0.00 0.00 47 1013.0
20260903202642 73 72 7.0 0.0 0.00 0.00 0.00 49 1013.4
20260903202311 73 72 7.0 0.0 0.00 0.00 0.00 48 1013.4
20260903201723 74 24 7.0 16.0 0.00 0.00 0.00 48 1013.2
20260903201220 73 65 7.0 16.0 0.00 0.00 0.00 50 1013.3
20260903200712 73 85 8.0 16.0 0.00 0.00 0.00 49 1013.4
20260903200210 73 90 10.0 19.0 0.00 0.00 0.00 49 1013.4
20260903195703 72 72 10.0 19.0 0.00 0.00 0.00 49 1013.4
20260903195430 73 51 9.0 19.0 0.00 0.00 0.00 48 1013.4
20260903194632 73 76 9.0 20.0 0.00 0.00 0.00 48 1013.3
20260903194400 73 88 10.0 20.0 0.00 0.00 0.00 49 1013.3
20260903193604 72 61 10.0 19.0 0.00 0.00 0.00 50 1013.6
20260903193037 72 96 10.0 19.0 0.00 0.00 0.00 50 1013.7
20260903192804 72 86 8.0 18.0 0.00 0.00 0.00 49 1013.7
20260903192009 72 94 9.0 18.0 0.00 0.00 0.00 51 1013.6
20260903191456 72 54 10.0 22.0 0.00 0.00 0.00 51 1013.5
20260903190954 72 127 11.0 22.0 0.00 0.00 0.00 51 1013.5
20260903190427 72 82 11.0 24.0 0.00 0.00 0.00 51 1013.5
20260903185922 72 71 9.0 24.0 0.00 0.00 0.00 50 1013.5
20260903185628 72 73 10.0 21.0 0.00 0.00 0.00 51 1013.5
20260903185334 72 49 10.0 24.0 0.00 0.00 0.00 51 1013.7
20260903184324 71 43 10.0 22.0 0.00 0.00 0.00 51 1013.7
20260903183756 71 71 12.0 23.0 0.00 0.00 0.00 52 1013.7
20260903183253 71 355 12.0 23.0 0.00 0.00 0.00 53 1013.9
20260903182727 71 83 11.0 20.0 0.00 0.00 0.00 54 1013.9
20260903182201 70 72 12.0 22.0 0.00 0.00 0.00 55 1014.2
20260903181637 70 63 11.0 22.0 0.00 0.00 0.00 55 1014.2
20260903181110 71 115 9.0 19.0 0.00 0.00 0.00 55 1014.2
20260903180609 71 63 8.0 17.0 0.00 0.00 0.00 56 1014.3
20260903180112 71 88 8.0 16.0 0.00 0.00 0.00 56 1014.4
20260903175546 71 106 9.0 16.0 0.00 0.00 0.00 56 1014.4
20260903175044 72 129 7.0 18.0 0.00 0.00 0.00 56 1014.5
20260903174544 72 105 8.0 18.0 0.00 0.00 0.00 55 1014.4
20260903174026 71 95 9.0 19.0 0.00 0.00 0.00 55 1014.4
20260903173759 71 84 8.0 19.0 0.00 0.00 0.00 57 1014.3
20260903173008 71 57 8.0 18.0 0.00 0.00 0.00 57 1014.4
20260903172442 71 65 9.0 18.0 0.00 0.00 0.00 57 1014.5
20260903171923 71 85 10.0 20.0 0.00 0.00 0.00 58 1014.5
20260903171634 70 19 9.0 20.0 0.00 0.00 0.00 59 1014.6
20260903170843 70 105 9.0 21.0 0.00 0.00 0.00 60 1014.6
20260903170340 69 77 9.0 21.0 0.00 0.00 0.00 58 1014.7
20260903170116 70 109 8.0 17.0 0.00 0.00 0.00 58 1014.7
20260903165318 70 63 8.0 15.0 0.00 0.00 0.00 58 1014.7
20260903164815 70 61 9.0 16.0 0.00 0.00 0.00 58 1014.7
20260903164254 69 65 10.0 22.0 0.00 0.00 0.00 59 1014.8
20260903163731 69 61 10.0 22.0 0.00 0.00 0.00 59 1014.8
20260903163231 69 129 10.0 18.0 0.00 0.00 0.00 59 1014.8
20260903162704 70 49 9.0 18.0 0.00 0.00 0.00 57 1014.8
20260903162204 71 87 7.0 18.0 0.00 0.00 0.00 56 1014.8
20260903161705 71 94 6.0 17.0 0.00 0.00 0.00 57 1014.8
20260903161206 71 53 6.0 13.0 0.00 0.00 0.00 56 1014.8
20260903160648 71 94 7.0 13.0 0.00 0.00 0.00 55 1014.8
20260903160124 71 101 6.0 13.0 0.00 0.00 0.00 54 1014.9
20260903155602 71 108 5.0 16.0 0.00 0.00 0.00 55 1014.9
20260903155033 71 96 6.0 16.0 0.00 0.00 0.00 56 1014.9
20260903154743 70 51 8.0 16.0 0.00 0.00 0.00 56 1014.9
20260903153950 71 117 7.0 13.0 0.00 0.00 0.00 57 1015.1
20260903153945 70 95 8.0 15.0 0.00 0.00 0.00 56 1015.0
20260903152939 71 65 6.0 13.0 0.00 0.00 0.00 55 1015.0
20260903152437 71 146 6.0 13.0 0.00 0.00 0.00 56 1015.0
20260903152412 71 45 6.0 14.0 0.00 0.00 0.00 56 1015.0
20260903151638 71 78 7.0 14.0 0.00 0.00 0.00 56 1015.2
20260903150909 71 92 7.0 16.0 0.00 0.00 0.00 56 1015.0
20260903150352 71 71 6.0 16.0 0.00 0.00 0.00 57 1015.0
20260903145855 71 84 7.0 13.0 0.00 0.00 0.00 57 1015.1
20260903145329 70 98 6.0 13.0 0.00 0.00 0.00 57 1015.1
20260903145033 69 65 6.0 17.0 0.00 0.00 0.00 58 1015.1
20260903144301 70 75 6.0 17.0 0.00 0.00 0.00 57 1015.1
20260903143734 69 88 8.0 17.0 0.00 0.00 0.00 58 1015.0
20260903143229 69 47 8.0 18.0 0.00 0.00 0.00 59 1015.1
20260903142727 68 46 9.0 18.0 0.00 0.00 0.00 59 1015.2
20260903142201 68 94 9.0 16.0 0.00 0.00 0.00 59 1015.3
20260903141648 68 49 7.0 15.0 0.00 0.00 0.00 60 1015.4
20260903141423 68 84 7.0 15.0 0.00 0.00 0.00 60 1015.4
20260903140624 68 106 8.0 14.0 0.00 0.00 0.00 60 1015.4
20260903140115 67 84 8.0 19.0 0.00 0.00 0.00 60 1015.6
20260903135551 67 65 9.0 18.0 0.00 0.00 0.00 60 1015.6
20260903135022 68 61 8.0 16.0 0.00 0.00 0.00 59 1015.5
20260903134519 68 73 5.0 15.0 0.00 0.00 0.00 59 1015.8
20260903133951 68 99 5.0 13.0 0.00 0.00 0.00 60 1015.6
20260903133450 68 69 6.0 13.0 0.00 0.00 0.00 60 1015.8
20260903133217 67 86 5.0 13.0 0.00 0.00 0.00 60 1015.5
20260903132434 67 89 4.0 13.0 0.00 0.00 0.00 61 1015.6
20260903131937 67 61 5.0 11.0 0.00 0.00 0.00 61 1015.5
20260903131409 67 63 5.0 11.0 0.00 0.00 0.00 61 1015.5
20260903130906 67 96 5.0 11.0 0.00 0.00 0.00 61 1015.5
20260903130341 67 82 4.0 14.0 0.00 0.00 0.00 62 1015.5
20260903125815 66 67 5.0 14.0 0.00 0.00 0.00 62 1015.3
20260903125309 66 71 7.0 15.0 0.00 0.00 0.00 62 1015.3
20260903124806 66 64 6.0 15.0 0.00 0.00 0.00 62 1015.4
20260903124305 66 39 5.0 13.0 0.00 0.00 0.00 62 1015.5
20260903123803 66 71 5.0 10.0 0.00 0.00 0.00 63 1015.4
20260903123259 65 64 5.0 11.0 0.00 0.00 0.00 63 1015.4
20260903123027 65 66 4.0 10.0 0.00 0.00 0.00 63 1015.3
20260903122228 65 74 4.0 11.0 0.00 0.00 0.00 62 1015.4
20260903121955 65 54 5.0 11.0 0.00 0.00 0.00 62 1015.3
20260903121220 65 69 5.0 10.0 0.00 0.00 0.00 62 1015.2
20260903120655 65 69 4.0 12.0 0.00 0.00 0.00 63 1015.1
20260903120128 65 61 4.0 12.0 0.00 0.00 0.00 63 1015.2
20260903115625 65 69 5.0 12.0 0.00 0.00 0.00 63 1015.0
20260903115119 65 51 4.0 9.0 0.00 0.00 0.00 63 1014.9
20260903114551 65 59 4.0 9.0 0.00 0.00 0.00 63 1014.9
20260903114049 65 0 4.0 8.0 0.00 0.00 0.00 63 1014.8
20260903113521 64 27 4.0 9.0 0.00 0.00 0.00 63 1014.9
20260903113019 64 42 3.0 7.0 0.00 0.00 0.00 63 1014.8
20260903112451 64 43 4.0 10.0 0.00 0.00 0.00 63 1014.9
20260903111949 64 23 3.0 10.0 0.00 0.00 0.00 63 1014.9
20260903111424 64 60 3.0 8.0 0.00 0.00 0.00 63 1014.8
20260903110919 64 36 4.0 8.0 0.00 0.00 0.00 63 1014.9
20260903110418 64 18 4.0 8.0 0.00 0.00 0.00 63 1015.0
20260903105848 64 30 3.0 7.0 0.00 0.00 0.00 63 1015.1
20260903105616 64 53 3.0 7.0 0.00 0.00 0.00 63 1015.1
20260903104841 64 51 3.0 7.0 0.00 0.00 0.00 62 1015.0
20260903104337 65 38 3.0 7.0 0.00 0.00 0.00 62 1015.0
20260903103835 65 71 2.0 7.0 0.00 0.00 0.00 62 1015.0
20260903103307 65 78 2.0 7.0 0.00 0.00 0.00 62 1014.9
20260903102805 65 72 2.0 7.0 0.00 0.00 0.00 62 1014.9
20260903102237 65 50 3.0 7.0 0.00 0.00 0.00 62 1014.9
20260903101735 65 59 2.0 6.0 0.00 0.00 0.00 62 1014.9
20260903101207 65 23 2.0 5.0 0.00 0.00 0.00 62 1014.8
20260903100705 65 55 2.0 5.0 0.00 0.00 0.00 61 1014.8
20260903100137 65 34 2.0 4.0 0.00 0.00 0.00 61 1014.7
20260903095635 65 50 2.0 7.0 0.00 0.00 0.00 61 1014.8
20260903095109 65 45 2.0 7.0 0.00 0.00 0.00 61 1014.7
20260903094813 65 48 2.0 5.0 0.00 0.00 0.00 61 1014.5
20260903094017 65 32 3.0 7.0 0.00 0.00 0.00 61 1014.6
20260903093519 65 20 3.0 7.0 0.00 0.00 0.00 61 1014.5
20260903092953 65 19 2.0 5.0 0.00 0.00 0.00 61 1014.4
20260903092929 65 21 2.0 5.0 0.00 0.00 0.00 61 1014.5
20260903091927 65 62 2.0 7.0 0.00 0.00 0.00 62 1014.5
20260903091424 65 24 2.0 7.0 0.00 0.00 0.00 62 1014.4
20260903090900 65 23 2.0 5.0 0.00 0.00 0.00 62 1014.4
20260903090336 65 29 2.0 7.0 0.00 0.00 0.00 62 1014.4
20260903085815 65 18 2.0 7.0 0.00 0.00 0.00 62 1014.4
20260903085258 65 55 2.0 6.0 0.00 0.00 0.00 62 1014.3
20260903084759 65 16 2.0 5.0 0.00 0.00 0.00 62 1014.3
20260903084239 65 23 2.0 7.0 0.00 0.00 0.00 62 1014.4
20260903083742 65 15 3.0 7.0 0.00 0.00 0.00 62 1014.4
20260903083444 65 26 3.0 5.0 0.00 0.00 0.00 62 1014.4
20260903082711 65 22 3.0 5.0 0.00 0.00 0.00 62 1014.5
20260903082444 66 33 3.0 6.0 0.00 0.00 0.00 62 1014.6
20260903081649 66 5 2.0 7.0 0.00 0.00 0.00 62 1014.7
20260903081147 66 40 2.0 7.0 0.00 0.00 0.00 62 1014.7
20260903080622 66 24 3.0 7.0 0.00 0.00 0.00 62 1014.6
20260903080054 66 22 3.0 8.0 0.00 0.00 0.00 62 1014.6
20260903075533 66 15 3.0 8.0 0.00 0.00 0.00 62 1014.6
20260903075033 66 32 3.0 8.0 0.00 0.00 0.00 62 1014.6
20260903074807 66 41 3.0 8.0 0.00 0.00 0.00 62 1014.7
20260903074018 66 23 2.0 8.0 0.00 0.00 0.00 62 1014.6
20260903073507 66 53 2.0 8.0 0.00 0.00 0.00 62 1014.7
20260903073235 66 28 3.0 8.0 0.00 0.00 0.00 62 1014.7
20260903072503 66 54 3.0 8.0 0.00 0.00 0.00 63 1014.7
20260903072003 66 11 3.0 6.0 0.00 0.00 0.00 63 1014.7
20260903071503 65 57 3.0 6.0 0.00 0.00 0.00 63 1014.8
20260903070939 65 24 3.0 7.0 0.00 0.00 0.00 63 1014.9
20260903070705 65 20 3.0 8.0 0.00 0.00 0.00 63 1014.9
20260903065932 66 34 3.0 7.0 0.00 0.00 0.00 63 1014.9
20260903065406 66 67 3.0 9.0 0.00 0.00 0.00 62 1015.0
20260903064842 66 15 3.0 9.0 0.00 0.00 0.00 62 1015.1
20260903064314 66 5 3.0 9.0 0.00 0.00 0.00 62 1015.0
20260903063810 66 51 3.0 9.0 0.00 0.00 0.00 61 1015.1
20260903063307 66 40 3.0 8.0 0.00 0.00 0.00 61 1015.1
20260903062743 67 20 3.0 8.0 0.00 0.00 0.00 60 1015.1
20260903062719 67 29 2.0 5.0 0.00 0.00 0.00 60 1015.1
20260903061716 67 51 2.0 6.0 0.00 0.00 0.00 59 1015.1
20260903061150 67 59 3.0 6.0 0.00 0.00 0.00 59 1015.1
20260903060647 67 53 2.0 6.0 0.00 0.00 0.00 58 1015.1
20260903060121 67 11 2.0 5.0 0.00 0.00 0.00 58 1015.2
20260903055555 67 53 2.0 5.0 0.00 0.00 0.00 58 1015.1
20260903055051 67 12 2.0 5.0 0.00 0.00 0.00 58 1015.1
20260903054525 68 11 2.0 4.0 0.00 0.00 0.00 58 1015.1
20260903054024 68 34 3.0 6.0 0.00 0.00 0.00 57 1015.0
20260903053456 68 29 3.0 7.0 0.00 0.00 0.00 57 1015.0
20260903052954 69 65 3.0 6.0 0.00 0.00 0.00 57 1015.0
20260903052705 69 0 3.0 7.0 0.00 0.00 0.00 57 1015.0
20260903051858 69 26 3.0 7.0 0.00 0.00 0.00 57 1014.9
20260903051355 69 28 3.0 7.0 0.00 0.00 0.00 57 1014.8
20260903050826 69 5 3.0 7.0 0.00 0.00 0.00 57 1015.0
20260903050326 68 35 2.0 5.0 0.00 0.00 0.00 57 1014.9
20260903045824 68 28 2.0 5.0 0.00 0.00 0.00 58 1015.0
20260903045301 68 5 2.0 5.0 0.00 0.00 0.00 59 1015.0
20260903044759 67 12 1.0 5.0 0.00 0.00 0.00 60 1015.0
20260903044255 67 11 1.0 4.0 0.00 0.00 0.00 61 1015.0
20260903044000 67 228 0.0 3.0 0.00 0.00 0.00 61 1014.9
20260903043204 67 226 0.0 3.0 0.00 0.00 0.00 61 1014.9
20260903042909 67 226 1.0 3.0 0.00 0.00 0.00 60 1014.8
20260903042110 68 226 1.0 3.0 0.00 0.00 0.00 59 1014.9
20260903041608 69 313 1.0 7.0 0.00 0.00 0.00 57 1014.9
20260903041042 69 355 2.0 3.0 0.00 0.00 0.00 57 1014.8
20260903040516 69 344 1.0 4.0 0.00 0.00 0.00 58 1014.9
20260903035949 68 0 1.0 4.0 0.00 0.00 0.00 59 1014.7
20260903035424 67 339 0.0 2.0 0.00 0.00 0.00 61 1014.8
20260903034858 66 338 1.0 2.0 0.00 0.00 0.00 63 1014.7
20260903034354 65 296 1.0 4.0 0.00 0.00 0.00 64 1014.7
20260903034124 65 291 2.0 3.0 0.00 0.00 0.00 65 1014.7
20260903033326 65 327 2.0 4.0 0.00 0.00 0.00 65 1014.7
20260903032820 65 297 3.0 3.0 0.00 0.00 0.00 66 1014.8
20260903032319 65 291 3.0 4.0 0.00 0.00 0.00 66 1014.8
20260903031750 65 294 2.0 4.0 0.00 0.00 0.00 66 1014.8
20260903031247 65 302 2.0 3.0 0.00 0.00 0.00 66 1014.8
20260903030722 65 302 2.0 3.0 0.00 0.00 0.00 65 1014.9
20260903030214 65 304 2.0 3.0 0.00 0.00 0.00 65 1014.7
20260903025713 66 304 3.0 4.0 0.00 0.00 0.00 65 1014.7
20260903025147 66 302 3.0 4.0 0.00 0.00 0.00 64 1014.7
20260903024620 66 301 3.0 4.0 0.00 0.00 0.00 63 1014.7
20260903024052 67 300 3.0 4.0 0.00 0.00 0.00 63 1014.6
20260903023550 66 299 2.0 3.0 0.00 0.00 0.00 63 1014.6
20260903023023 66 297 2.0 3.0 0.00 0.00 0.00 64 1014.5
20260903022520 67 298 2.0 3.0 0.00 0.00 0.00 63 1014.5
20260903021952 67 273 2.0 3.0 0.00 0.00 0.00 63 1014.4
20260903021428 68 261 2.0 3.0 0.00 0.00 0.00 61 1014.4
20260903020900 68 261 2.0 3.0 0.00 0.00 0.00 61 1014.5
20260903020357 67 261 2.0 3.0 0.00 0.00 0.00 62 1014.4
20260903015854 68 232 2.0 3.0 0.00 0.00 0.00 61 1014.3
20260903015622 68 226 2.0 3.0 0.00 0.00 0.00 62 1014.3
20260903015056 68 226 2.0 3.0 0.00 0.00 0.00 61 1014.2
20260903014320 68 226 2.0 3.0 0.00 0.00 0.00 62 1014.3
20260903013818 68 226 2.0 2.0 0.00 0.00 0.00 62 1014.1
20260903013314 68 225 1.0 2.0 0.00 0.00 0.00 62 1014.2
20260903012813 68 225 1.0 2.0 0.00 0.00 0.00 61 1014.2
20260903012515 68 225 1.0 2.0 0.00 0.00 0.00 60 1014.0
20260903011742 68 225 1.0 3.0 0.00 0.00 0.00 60 1013.9
20260903011238 68 225 2.0 3.0 0.00 0.00 0.00 61 1013.8
20260903010735 69 225 2.0 3.0 0.00 0.00 0.00 62 1013.9
20260903010209 69 225 1.0 3.0 0.00 0.00 0.00 61 1013.8
20260903005706 69 225 1.0 3.0 0.00 0.00 0.00 61 1013.9